Вернуться в каталог

STARLINK-32125

АктивенСвязьVLEO
NORAD 60260·PAYLOAD·🇺🇸 United States

Запущен Jul 27, 2024 с Cape Canaveral Space Force Station

Loading…

Ближайшие Пролёты (ближайшие 24 часа)

TLE

СвежийSource: CelesTrak SupGP

Эпоха: Sep 15, 2026, 02:41 UTC

1 60260C 24131F   26258.11229167 -.00033249  00000+0 -98217-3 0  2587
2 60260  53.1579 250.9142 0001335  82.4996 279.2060 15.34413008    15

Отслеживайте STARLINK-32125 в реальном времени с AllMySat

Download on the App Store